Mathews, Virginia, United States (23109)
Lat: 37.44N, Lon: 76.32W
Wx Zone: VAZ086
Local Info
Past Weather Observations for Today

NOTE: This archive is for the closest National Weather Service station to Mathews. Information may differ from the station used for current weather conditions.

Click here for Long-term Archive

Time Weather Temperature Dewpoint Humidity Pressure Winds Precip Visibility
16:40
Mostly Cloudy
75°F / 24°C 72°F / 22°C 89% 30.04 in
(1017 mb)
E 9.2 mph
(E 15 kph)
0.00 in
(0.00 mm)
10SM
16:25
Partly Cloudy
Thunder Storms
75°F / 24°C 72°F / 22°C 89% 30.04 in
(1017 mb)
E 12.7 mph
(E 20 kph)
0.00 in
(0.00 mm)
10SM
16:03
Mostly Cloudy
Light Rain
75°F / 24°C 72°F / 22°C 89% 30.04 in
(1017 mb)
E 12.7 mph
(E 20 kph)
0.00 in
(0.00 mm)
10SM
15:54
Mostly Cloudy
75°F / 24°C 72°F / 22°C 89% 30.04 in
(1017 mb)
E 12.7 mph
(E 20 kph)
- 10SM
15:37
Mostly Cloudy
75°F / 24°C 72°F / 22°C 89% 30.04 in
(1017 mb)
E 8.1 mph
(E 13 kph)
- 10SM
14:54
Partly Cloudy
77°F / 25°C 72°F / 22°C 83% 30.01 in
(1016 mb)
E 13.8 mph
(E 22 kph)
- 10SM
13:54
Mostly Cloudy
79°F / 26°C 72°F / 22°C 79% 30.04 in
(1017 mb)
ENE 10.4 mph
(ENE 17 kph)
- 10SM
12:54
Clear
79°F / 26°C 72°F / 22°C 79% 30.06 in
(1018 mb)
NE 5.8 mph
(NE 9 kph)
- 10SM
11:54
Clear
79°F / 26°C 72°F / 22°C 79% 30.06 in
(1018 mb)
NE 8.1 mph
(NE 13 kph)
- 10SM
11:30
Partly Cloudy
79°F / 26°C 72°F / 22°C 79% 30.06 in
(1018 mb)
E 8.1 mph
(E 13 kph)
- 10SM
11:08
Mostly Cloudy
79°F / 26°C 72°F / 22°C 79% 30.09 in
(1019 mb)
E 6.9 mph
(E 11 kph)
- 10SM
11:01
Mostly Cloudy
79°F / 26°C 72°F / 22°C 79% 30.09 in
(1019 mb)
Calm - 10SM
10:54
Overcast
77°F / 25°C 72°F / 22°C 83% 30.09 in
(1019 mb)
NE 4.6 mph
(NE 7 kph)
- 10SM
10:11
Overcast
77°F / 25°C 72°F / 22°C 83% 30.09 in
(1019 mb)
ENE 4.6 mph
(ENE 7 kph)
- 10SM
09:54
Overcast
75°F / 24°C 72°F / 22°C 89% 30.09 in
(1019 mb)
NE 5.8 mph
(NE 9 kph)
- 10SM
09:50
Overcast
75°F / 24°C 72°F / 22°C 89% 30.09 in
(1019 mb)
ENE 4.6 mph
(ENE 7 kph)
- 10SM
08:54
Overcast
73°F / 23°C 72°F / 22°C 94% 30.09 in
(1019 mb)
ENE 5.8 mph
(ENE 9 kph)
- 10SM
08:10
Overcast
73°F / 23°C 72°F / 22°C 94% 30.09 in
(1019 mb)
NE 5.8 mph
(NE 9 kph)
- 10SM
08:01
Overcast
73°F / 23°C 72°F / 22°C 94% 30.09 in
(1019 mb)
NNE 3.5 mph
(NNE 6 kph)
- 10SM
07:54
Overcast
Fog And Mist
73°F / 23°C 72°F / 22°C 94% 30.09 in
(1019 mb)
NE 3.5 mph
(NE 6 kph)
- 1SM
07:37
Overcast
Fog And Mist
72°F / 22°C 72°F / 22°C 100% 30.06 in
(1018 mb)
N 4.6 mph
(N 7 kph)
- 1SM
07:24
Overcast
Fog And Mist
72°F / 22°C 72°F / 22°C 100% 30.06 in
(1018 mb)
NE 5.8 mph
(NE 9 kph)
- 3SM
07:17
Overcast
Fog And Mist
72°F / 22°C 72°F / 22°C 100% 30.06 in
(1018 mb)
NE 6.9 mph
(NE 11 kph)
- 2 1/2SM
07:06
Overcast
Fog And Mist
72°F / 22°C 72°F / 22°C 100% 30.06 in
(1018 mb)
NE 6.9 mph
(NE 11 kph)
- 3SM
06:54
Overcast
Fog And Mist
72°F / 22°C 72°F / 22°C 100% 30.06 in
(1018 mb)
NE 5.8 mph
(NE 9 kph)
- 1SM
06:47
Overcast
Fog And Mist
72°F / 22°C 72°F / 22°C 100% 30.06 in
(1018 mb)
NNE 6.9 mph
(NNE 11 kph)
- 1 3/4SM
06:32
Overcast
Fog And Mist
72°F / 22°C 72°F / 22°C 100% 30.06 in
(1018 mb)
NNE 3.5 mph
(NNE 6 kph)
- 4SM
06:07
Overcast
Fog And Mist
72°F / 22°C 72°F / 22°C 100% 30.06 in
(1018 mb)
N 3.5 mph
(N 6 kph)
- 2SM
05:54
Overcast
Fog And Mist
72°F / 22°C 72°F / 22°C 100% 30.06 in
(1018 mb)
NNE 3.5 mph
(NNE 6 kph)
- 6SM
05:30
Overcast
Fog And Mist
72°F / 22°C 72°F / 22°C 100% 30.06 in
(1018 mb)
Calm - 4SM
05:25
Obscured
Fog And Mist
72°F / 22°C 72°F / 22°C 100% 30.06 in
(1018 mb)
Calm - 1SM
04:54
Obscured
Fog
72°F / 22°C 72°F / 22°C 100% 30.04 in
(1017 mb)
Calm - 1/4SM
04:19
Obscured
Fog
72°F / 22°C 72°F / 22°C 100% 30.04 in
(1017 mb)
NNE 4.6 mph
(NNE 7 kph)
- 1/4SM
04:10
Obscured
Fog
72°F / 22°C 70°F / 21°C 94% 30.04 in
(1017 mb)
N 4.6 mph
(N 7 kph)
- 1/2SM
03:54
Overcast
Fog And Mist
72°F / 22°C 70°F / 21°C 94% 30.04 in
(1017 mb)
N 4.6 mph
(N 7 kph)
- 1 1/4SM
03:46
Overcast
Fog And Mist
72°F / 22°C 70°F / 21°C 94% 30.04 in
(1017 mb)
Calm - 1 3/4SM
03:29
Overcast
Fog And Mist
72°F / 22°C 72°F / 22°C 100% 30.04 in
(1017 mb)
N 3.5 mph
(N 6 kph)
- 3SM
03:13
Overcast
Fog And Mist
72°F / 22°C 72°F / 22°C 100% 30.04 in
(1017 mb)
N 3.5 mph
(N 6 kph)
- 1 1/4SM
03:01
Overcast
Fog And Mist
72°F / 22°C 72°F / 22°C 100% 30.04 in
(1017 mb)
N 3.5 mph
(N 6 kph)
- 2 1/2SM
02:54
Overcast
Fog And Mist
72°F / 22°C 72°F / 22°C 100% 30.04 in
(1017 mb)
NNW 3.5 mph
(NNW 6 kph)
- 3SM
02:46
Overcast
Fog And Mist
72°F / 22°C 72°F / 22°C 100% 30.04 in
(1017 mb)
NW 3.5 mph
(NW 6 kph)
- 3SM
02:23
Overcast
Fog And Mist
72°F / 22°C 72°F / 22°C 100% 30.04 in
(1017 mb)
Calm - 1 3/4SM
01:30
Overcast
Fog And Mist
72°F / 22°C 72°F / 22°C 100% 30.04 in
(1017 mb)
Calm - 5SM
00:54
Overcast
72°F / 22°C 72°F / 22°C 100% 30.04 in
(1017 mb)
N 3.5 mph
(N 6 kph)
- 7SM
00:31
Overcast
72°F / 22°C 72°F / 22°C 100% 30.04 in
(1017 mb)
NNW 3.5 mph
(NNW 6 kph)
- 9SM
Time Weather Temperature Dewpoint Humidity Pressure Winds Precip Visibility


Weather for websites

WeatherForYou.com, LLC is not responsible for any damages or problems caused by this service. Current weather conditions are obtained from the closest station including government and personal stations which may have varying degrees of accuracy. Weather forecasts are derived from the NOAA NDFD. Like all things, this site belongs to Jesus Christ... He just trusts us to maintain it. If you have any questions or comments email webmaster@weatherforyou.com

Copyright © 2016, WeatherForYou.com LLC. All rights reserved.